Torna al catalogo

STARLINK-35874

AttivoComunicazioniVLEO
NORAD 66962·PAYLOAD·🇺🇸 United States

Lanciato Dec 8, 2025 da Cape Canaveral Space Force Station

Loading…

Prossimi Passaggi (prossime 24 ore)

TLE

AggiornatoSource: CelesTrak SupGP

Epoca: Sep 15, 2026, 03:17 UTC

1 66962C 25288D   26258.13729167 -.00006720  00000+0 -24336-3 0  2588
2 66962  43.0023  33.9854 0001728 268.0670 174.5803 15.27585940    17

Traccia STARLINK-35874 in tempo reale con AllMySat

Download on the App Store